Regional Weather Roundup
Issued by NWS Sterling, VA

Home | Current Version | Previous Version | Text Only | Print | Product List | Glossary Off
Versions: 1 2 3 4 5 6 7 8 9 10 11 12 13 14 15 16 17 18 19 20 21 22 23 24 25 26 27 28 29 30 31 32 33 34 35 36 37 38 39 40 41 42 43 44 45 46 47 48 49 50

000
ASUS41 KLWX 300310
RWRLWX

REGIONAL WEATHER ROUNDUP
NATIONAL WEATHER SERVICE BALTIMORE MD/WASHINGTON DC
1100 PM EDT FRI AUG 29 2014

Note: "FAIR" indicates few or no clouds below 12,000 feet
with no significant weather and/or obstructions to visibility.
 TC=TEMPERATURE CELSIUS

 * =Non NWS site. Station does not report precipitation (e.g. rain,
    snow, etc.), thunder, or fog.

DCZ001-MDZ009-015-VAZ040>042-051-053>054-300400-
WASHINGTON METRO
  /KDAA//-FT BELVOIR

CITY           SKY/WX    TMP DP  RH WIND       PRES   REMARKS
WASHINGTON NAT MOCLDY    74  57  55 SE3       30.22R
DULLES         PTCLDY    63  55  75 CALM      30.21R
ANDREWS AFB    PTCLDY    64  59  82 E7        30.22R
QUANTICO       PTCLDY    72  59  63 CALM      30.22R
COLLEGE PARK*  MOCLDY    64  59  82 CALM      30.22R
LEESBURG*      CLEAR     64  59  82 CALM      30.22S
MANASSAS*      CLOUDY    66  61  82 CALM      30.21R
GAITHERSBURG*  CLEAR     63  54  72 E3        30.26R

$$

MDZ006>007-011-014-300400-
BALTIMORE METRO

CITY           SKY/WX    TMP DP  RH WIND       PRES   REMARKS
BWI AIRPORT    PTCLDY    66  58  75 E3        30.22R
MD SCIENCE CTR   N/A     72  60  66 MISG      30.23R
MARTIN STATE   CLEAR     70  63  78 E12       30.24R
ANNAPOLIS      CLEAR     72  63  73 SE15      30.22R
FORT MEADE*    CLEAR     57  55  94 CALM      30.25R

$$

MDZ012-015-019>023-300400-
MARYLAND EASTERN SHORE

CITY           SKY/WX    TMP DP  RH WIND       PRES   REMARKS
OCEAN CITY     CLEAR     70  59  68 SE6       30.22R
SALISBURY      CLEAR     64  59  83 CALM      30.23R
BAY BRIDGE AP*   N/A     68  59  73 SE9       30.23R
CAMBRIDGE*     CLEAR     64  59  82 CALM      30.22S
EASTON*        CLEAR     66  62  85 CALM      30.26S

$$

MDZ017>025-300400-
SOUTHERN MARYLAND

CITY           SKY/WX    TMP DP  RH WIND       PRES   REMARKS
PATUXENT RIVER MOCLDY    71  62  73 SE12      30.21R
ST INIGOES     CLEAR     70  60  70 E6        30.21R
LEONARDTOWN*   CLEAR     68  61  77 SE3       30.23S

$$

MDZ003>005-300400-
NORTH CENTRAL MARYLAND

CITY           SKY/WX    TMP DP  RH WIND       PRES   REMARKS
FREDERICK*     CLEAR     61  59  94 CALM      30.24S
HAGERSTOWN APT CLEAR     66  54  65 E6        30.21R
WESTMINSTER*   PTCLDY    64  57  77 CALM      30.23S

$$

MDZ501>502-300400-
WESTERN MARYLAND

CITY           SKY/WX    TMP DP  RH WIND       PRES   REMARKS
OAKLAND*       CLEAR     59  59 100 SE13      30.23R
CUMBERLAND*    CLEAR     66  54  63 N3        30.23R

$$

VAZ025>031-300400-
SHENANDOAH VALLEY

CITY           SKY/WX    TMP DP  RH WIND       PRES   REMARKS
WINCHESTER*    CLOUDY    64  59  82 CALM      30.21R
STAUNTON*      CLOUDY    67  61  81 CALM      30.23S

$$

WVZ021-048>050-054>055-300400-
EASTERN WEST VIRGINIA PANHANDLE

CITY           SKY/WX    TMP DP  RH WIND       PRES   REMARKS
MARTINSBURG    CLEAR     66  54  65 CALM      30.21R
PETERSBURG*    NOT AVBL

$$

VAZ036>039-050-300400-
CENTRAL FOOTHILLS

CITY           SKY/WX    TMP DP  RH WIND       PRES   REMARKS
CHARLOTTESVILL CLOUDY    69  63  81 CALM      30.20R
ORANGE*        CLOUDY    70  59  68 NE6       30.22S

$$

VAZ055>057-300400-
NORTH AND CENTRAL PIEDMONT

CITY           SKY/WX    TMP DP  RH WIND       PRES   REMARKS
FREDERICKSBRG* CLEAR     67  61  80 CALM      30.20S
STAFFORD*      CLEAR     62  62 100 CALM      30.25S

$$

NCZ024-NYZ072-PAZ021-071-VAZ022-071-300400-
OTHER REGIONAL OBSERVATIONS

CITY           SKY/WX    TMP DP  RH WIND       PRES   REMARKS
NEW YORK CITY  PTCLDY    68  52  56 MISG      30.27S
PHILADELPHIA   PTCLDY    67  58  72 SE6       30.24R
PITTSBURGH     PTCLDY    68  55  63 CALM      30.12S
ROANOKE        CLOUDY    74  67  78 SE5       30.22R
RICHMOND       CLOUDY    73  62  68 SE8       30.20S
RALEIGH        MOCLDY    76  69  79 SE7       30.18R

$$

ANZ530>537-300400-
MARINE OBSERVATIONS

STATION/POSITION TIME  TEMP    WIND        PRES
                       AIR SEA DIR/SP/G
                 (UTC) (F)     (DEG/KT/KT) (MB)
THOMAS PT LIGHT  0300   71 77  140/ 14/ 17 1024.2R
BALT KEY BRIDGE  0300   78     130/ 13/ 16 1022.9R
COVE POINT       0300   72     160/ 14/ 18 1023.1R
LEWISETTA        0300   72 79  140/  7/  9 1022.6F
SOLOMONS ISLAND  0300      80                N/A
PINEY POINT      0300          150/ 15/ 16   N/A

$$




USA.gov is the U.S. government's official web portal to all federal, state and local government web resources and services.